Flag for Germany Weather past 2 weeks in Germering, Bavaria, Germany

Now
54 °F

Passing clouds.


Feels Like: 54 °F
Forecast: 50 / 75 °F
Wind: No wind

Location: Landsberg

Current Time: Jul 24, 2014 at 6:41:59 AM

Latest Report: Jul 24, 2014 at 5:20 AM


Visibility: N/A

Pressure: 29.92 "Hg

Humidity: 88%

Dew point: 50 °F

Location of GermeringLocation

Historic Weather in Germering — Graph

°F

Germering temperature yesterday

Maximum temperature yesterday: 75 °F (at 3:20 PM)
Minimum temperature yesterday: 57 °F (at 1:20 AM)
Average temperature yesterday: 66 °F

Past Weeks' High & Low Weather Summary

 TemperatureHumidityPressure
High88 °F (Jul 19, 4:20 PM)100% (Jul 11, 1:20 AM)30.24 "Hg (Jul 11, 1:20 AM)
Low50 °F (Jul 9, 9:20 PM)27% (Jul 19, 5:20 PM)29.80 "Hg (Jul 10, 4:20 AM)
Average64 °F74%30.00 "Hg
* Reported Jul 9 3:20 PM — Jul 24 5:20 AM, Germering, Weather by CustomWeather, © 2014

Note: Actual official high and low records may vary slightly from our data, if they occured in-between our weather recording intervals... More about our weather records

Advertising

Germering weather history for previous 24 hours

 ConditionsComfort  
Time TempWeatherWind HumidityBarometerVisibility
5:20 AM
Jul 24
54 °FPassing clouds.No wind88%29.92 "HgN/A
4:20 AM55 °FPassing clouds.1 mph88%29.92 "HgN/A
3:20 AM57 °FPassing clouds.3 mph82%29.92 "HgN/A
2:20 AM57 °FPassing clouds.3 mph88%29.95 "HgN/A
1:20 AM57 °FPassing clouds.3 mph88%29.95 "HgN/A
12:20 AM61 °FPassing clouds.3 mph77%29.98 "HgN/A
12:00 AM63 °FPassing clouds.3 mph73%29.98 "HgN/A
11:20 PM
Jul 23
61 °FPassing clouds.3 mph77%29.98 "HgN/A
10:20 PM64 °FPassing clouds.1 mph64%29.98 "HgN/A
9:20 PM66 °FPassing clouds.6 mph60%29.98 "HgN/A
8:20 PM70 °FPassing clouds.8 mph50%29.98 "HgN/A
7:20 PM73 °FPassing clouds.10 mph50%29.98 "HgN/A
6:20 PM75 °FPassing clouds.10 mph47%29.98 "HgN/A
5:20 PM75 °FScattered clouds.12 mph44%29.98 "HgN/A
4:20 PM75 °FPartly sunny.12 mph47%29.98 "HgN/A
3:20 PM75 °FPartly sunny.10 mph54%29.98 "HgN/A
2:20 PM73 °FPartly sunny.12 mph57%30.01 "HgN/A
12:20 PM70 °FScattered clouds.12 mph78%30.04 "HgN/A
11:20 AM68 °FScattered clouds.7 mph78%30.04 "HgN/A
10:20 AM66 °FPartly sunny.7 mph78%30.04 "HgN/A
7:20 AM59 °FFog.No wind100%30.04 "Hg0 mi
6:20 AM57 °FFog.2 mph100%30.04 "Hg0 mi
Weather by CustomWeather, © 2014

See weather overviewHow to use our weather pages